JCSAT-110A (JCSAT-15)

Last updated on Sun Jun 21 2026 00:03:07 GMT+0000 (Coordinated Universal Time)

1 41903U 16082A 26171.17586510 -.00000356 00000+0 00000+0 0 9997 2 41903 0.0184 18.3419 0000528 76.5405 346.8710 1.00269770 34783
UTC large
Height (km)
Speed (km/s)
/
Latitude / Longitude
Inclination (degrees)
Orbital Period (minutes)
Azimuth
Elevation
Range (km)
Doppler Factor

Next 0 passes for location: London (51.5072 / 0.1276)

No passes found over London.
JCSAT-110A (JCSAT-15)